User: anonymous   Login
Location: Unspecified
(0.0000°N, 0.0000°E)
Time: 00:23:08
(UTC+00:00)
Language:

HODOYOSHI 1 - Orbit

View from above orbital plane
View from above orbital plane
View from above satellite
View from above satellite

Ground track
Ground track

The orbit data is extracted from the following two-line orbital elements,

1 40299U 14070B   17231.49571381  .00000544  00000-0  26602-4 0  9991
2 40299  97.4007 313.2709 0011817 226.0676 250.6449 15.22341134154573
Epoch (UTC): 19 August 2017 11:53:49
Eccentricity: 0.0011817
inclination: 97.4007°
perigee height: 490 km
apogee height: 507 km
right ascension of ascending node: 313.2709°
argument of perigee: 226.0676°
revolutions per day: 15.22341134
mean anomaly at epoch: 250.6449°
orbit number at epoch: 15457

The dashed part of the orbit path shows where the satellite is in the earth's shadow,  

DLR